Location: *
(37.9500°N, 27.3666°E)
Time: 15:41:05
(UTC+00:00)

Meteor 1-4 Rocket - Pass Details

Date: 24 October 2021
Orbit: 447 x 496 km, 81.2° (Epoch: 07 December)

Event Time Altitude Azimuth Distance (km) Brightness Sun altitude
Rises 16:54:21 0° 202° (SSW) 2,471 6.5 -19.1°
Reaches altitude 10° 16:56:31 10° 210° (SSW) 1,594 5.6 -19.5°
Maximum altitude 16:59:49 40° 282° (WNW) 680 3.8 -20.1°
Drops below altitude 10° 17:03:06 10° 353° (N) 1,587 5.2 -20.8°
Sets 17:05:15 0° 1° (N) 2,460 6.2 -21.2°
